Terug naar catalogus

THORAD AGENA D DEB

ActiefSSO
NORAD 5150·DEBRIS·🇺🇸 United States

Gelanceerd Apr 8, 1970 vanaf Vandenberg Space Force Base

Loading…

Volgende Passages (komende 24 uur)

TLE

VersSource: Space-Track

Epoch: Sep 14, 2026, 05:23 UTC

1 05150U 70025JT  26257.22430612  .00001253  00000-0  93389-3 0  9993
2 05150  99.4665 344.8723 0088233 214.7142 144.8241 13.95096458822633

Volg THORAD AGENA D DEB in realtime met AllMySat

Download on the App Store